Sacramento International, CA

5:29 AM PDT on April 28, 2017 (GMT -0700)
Sacramento International

Weather History for KSMF - April, 2013

Change the Weather History Date:

Friday, April 26, 2013

  Actual Average Record
Temperature  
Mean Temperature 64 °F -  
Max Temperature 82 °F 74 °F 96 °F (2004)
Min Temperature 45 °F 47 °F 37 °F (1975)
Degree Days  
Heating Degree Days 2    
Growing Degree Days 14 (Base 50)    
Moisture  
Dew Point 48 °F    
Average Humidity 64    
Maximum Humidity 93    
Minimum Humidity 28    
Precipitation  
Precipitation 0.00 in - - ()
Sea Level Pressure  
Sea Level Pressure 30.13 in    
Wind  
Wind Speed 6 mph (SSE)    
Max Wind Speed 13 mph    
Max Gust Speed -    
Visibility 10 miles    
Events      
Averages and records for this station are not official NWS values.
T = Trace of Precipitation, MM = Missing Value Source: NWS Daily Summary

Daily Weather History Graph

Daily Weather History Graph

Search for Another Location

Airport or City:

Trip Planner

Search our weather history database for the weather conditions in past years. The results will help you decide how hot, cold, wet, or windy it might be!

Date:

Astronomy

Apr. 26, 2013 Rise Set
Actual Time 6:14 AM PDT 7:54 PM PDT
Civil Twilight 5:46 AM PDT 8:22 PM PDT
Nautical Twilight 5:12 AM PDT 8:56 PM PDT
Astronomical Twilight 4:36 AM PDT 9:33 PM PDT
Moon 9:21 PM PDT (4/26) 6:47 AM PDT (4/26)
Length of Visible Light 14h 36m
Length of Day
13h 39m
Full, 99% of the Moon is Illuminated
Apr 26
Full
May 2
Last Quarter
May 9
New
May 17
First Quarter
May 24
Full

Hourly Weather History & Observations

Time (PDT) Temp. Dew Point Humidity Pressure Visibility Wind Dir Wind Speed Gust Speed Precip Events Conditions
12:53 AM 52.0 °F 46.9 °F 83% 30.08 in 10.0 mi SE 10.4 mph - N/A   Clear
1:53 AM 52.0 °F 46.9 °F 83% 30.08 in 10.0 mi SE 8.1 mph - N/A   Clear
2:53 AM 51.1 °F 46.9 °F 86% 30.09 in 10.0 mi SE 8.1 mph - N/A   Clear
3:53 AM 50.0 °F 46.9 °F 89% 30.10 in 10.0 mi SE 4.6 mph - N/A   Clear
4:53 AM 45.0 °F 43.0 °F 93% 30.11 in 10.0 mi Calm Calm - N/A   Clear
5:53 AM 46.9 °F 43.0 °F 86% 30.12 in 10.0 mi East 3.5 mph - N/A   Clear
6:53 AM 46.0 °F 43.0 °F 89% 30.15 in 10.0 mi Calm Calm - N/A   Clear
7:53 AM 51.1 °F 48.0 °F 89% 30.18 in 10.0 mi SE 3.5 mph - N/A   Clear
8:53 AM 55.0 °F 48.9 °F 80% 30.19 in 10.0 mi SSE 4.6 mph - N/A   Clear
9:53 AM 59.0 °F 48.9 °F 69% 30.20 in 10.0 mi Calm Calm - N/A   Clear
10:53 AM 64.0 °F 50.0 °F 60% 30.20 in 10.0 mi South 6.9 mph - N/A   Clear
11:53 AM 68.0 °F 50.0 °F 52% 30.19 in 10.0 mi SSE 3.5 mph - N/A   Clear
12:53 PM 72.0 °F 50.0 °F 46% 30.17 in 10.0 mi Variable 3.5 mph - N/A   Clear
1:53 PM 77.0 °F 50.0 °F 39% 30.15 in 10.0 mi Variable 4.6 mph - N/A   Clear
2:53 PM 80.1 °F 48.9 °F 34% 30.13 in 10.0 mi SW 6.9 mph - N/A   Clear
3:53 PM 81.0 °F 46.9 °F 30% 30.11 in 10.0 mi Calm Calm - N/A   Clear
4:53 PM 82.9 °F 46.9 °F 28% 30.09 in 10.0 mi Variable 3.5 mph - N/A   Clear
5:53 PM 80.1 °F 52.0 °F 38% 30.09 in 10.0 mi SSE 12.7 mph - N/A   Clear
6:53 PM 77.0 °F 50.0 °F 39% 30.09 in 10.0 mi South 12.7 mph - N/A   Clear
7:53 PM 70.0 °F 55.0 °F 59% 30.09 in 10.0 mi South 11.5 mph - N/A   Clear
8:53 PM 64.0 °F 52.0 °F 65% 30.11 in 10.0 mi South 11.5 mph - N/A   Clear
9:53 PM 60.1 °F 50.0 °F 69% 30.13 in 10.0 mi South 8.1 mph - N/A   Clear
10:53 PM 57.9 °F 48.0 °F 70% 30.13 in 10.0 mi South 8.1 mph - N/A   Clear
11:53 PM 57.0 °F 46.9 °F 69% 30.14 in 10.0 mi SSE 9.2 mph - N/A   Clear